Le nostre stazioni meteo in Italia

Pubblicità
Il mio iltempo24.it
Lecce, Italia (16332): Temperatura & dewpoint: 10.10.2018 04:00:00 - 16.10.2018 04:00:00 (CEST)Lecce, Italia (16332): velocità del vento: 10.10.2018 04:00:00 - 16.10.2018 04:00:00 (CEST)Lecce, Italia (16332): direzione del vento: 10.10.2018 04:00:00 - 16.10.2018 04:00:00 (CEST)Lecce, Italia (16332): reduced air pressure: 10.10.2018 04:00:00 - 16.10.2018 04:00:00 (CEST)Lecce, Italia (16332): visibility: 10.10.2018 04:00:00 - 16.10.2018 04:00:00 (CEST)
Data & Tempo tt [°C] td [°C] ff [km/h] ff [kn] dd ppp [hPa] vv [km]
16.10.2018 04:00:00 18,0 17,0 5 3 E - 10
16.10.2018 03:00:00 18,0 17,0 9 5 E - 10
16.10.2018 02:00:00 18,0 16,9 11 6 E 1019,0 10
16.10.2018 01:00:00 18,0 17,0 11 6 E - 10
16.10.2018 00:00:00 18,0 17,0 9 5 E - 10
15.10.2018 23:00:00 18,0 16,7 9 5 E 1018,9 10
15.10.2018 22:00:00 18,0 17,0 8 4 E - 10
15.10.2018 21:00:00 18,0 17,0 9 5 E - 10
15.10.2018 20:00:00 19,4 17,5 5 3 ENE 1018,2 10
15.10.2018 19:00:00 20,0 17,0 8 4 E - 10
15.10.2018 18:00:00 21,0 13,0 15 8 SE - 10
15.10.2018 17:00:00 22,4 15,7 18 10 SE 1017,4 10
15.10.2018 16:00:00 23,0 16,0 21 11 SE - 10
15.10.2018 15:00:00 23,0 16,0 21 11 SE - 10
15.10.2018 14:00:00 24,0 16,8 18 10 ESE 1017,6 10
15.10.2018 13:00:00 24,0 17,0 21 11 SE - 10
15.10.2018 12:00:00 24,0 15,0 21 11 ESE - 10
15.10.2018 11:00:00 23,2 16,0 21 11 ESE 1017,8 10
15.10.2018 10:00:00 22,0 15,0 22 12 ESE - 10
15.10.2018 09:00:00 20,0 15,0 13 7 ESE - 10
15.10.2018 08:00:00 16,8 13,5 8 4 E 1017,9 10
15.10.2018 07:00:00 16,0 14,0 9 5 E - 10
15.10.2018 06:00:00 16,0 15,0 9 5 E - 10
15.10.2018 05:00:00 16,2 14,7 5 3 ESE 1017,9 10
15.10.2018 04:00:00 17,0 15,0 11 6 E - 10
15.10.2018 03:00:00 17,0 15,0 11 6 E - 10
15.10.2018 02:00:00 16,4 15,4 8 4 ESE 1018,5 10
15.10.2018 01:00:00 16,0 15,0 8 4 E - 10
15.10.2018 00:00:00 16,0 15,0 8 4 E - 10
14.10.2018 23:00:00 16,8 14,4 9 5 E 1019,0 10
14.10.2018 22:00:00 16,0 14,0 8 4 E - 10
14.10.2018 21:00:00 17,0 14,0 5 3 ENE - 10
14.10.2018 20:00:00 17,0 15,4 5 3 ENE 1019,0 10
14.10.2018 19:00:00 18,0 13,0 0 0 N - 10
14.10.2018 18:00:00 20,0 15,0 11 6 SE - 10
14.10.2018 17:00:00 21,8 14,7 13 7 SE 1018,7 10
14.10.2018 16:00:00 22,0 15,0 9 5 SSO - 10
14.10.2018 15:00:00 23,0 18,0 8 4 S - 10
14.10.2018 14:00:00 22,8 15,9 8 4 ENE 1019,1 10
14.10.2018 13:00:00 24,0 15,0 4 2 SE - 10
14.10.2018 12:00:00 23,0 16,0 5 3 ENE - 7
14.10.2018 11:00:00 22,0 16,7 5 3 NNE 1020,1 5
14.10.2018 10:00:00 18,0 18,0 0 0 N - 3,0
14.10.2018 09:00:00 14,0 13,0 0 0 N - 1,5
14.10.2018 08:00:00 13,2 12,4 4 2 N 1020,3 0,2
14.10.2018 07:00:00 13,0 12,0 4 2 - - 0,2
14.10.2018 06:00:00 13,0 12,0 4 2 - - 0,4
14.10.2018 05:00:00 13,0 12,2 4 2 N 1021,1 0,4
14.10.2018 04:00:00 14,0 13,0 4 2 - - 0,7
14.10.2018 03:00:00 13,0 12,0 4 2 - - 2,0
14.10.2018 02:00:00 14,0 13,2 0 0 N 1021,2 2,0
14.10.2018 01:00:00 14,0 13,0 0 0 N - 1,5
14.10.2018 00:00:00 14,0 13,0 4 2 - - 1,5
13.10.2018 23:00:00 15,0 14,2 4 2 N 1021,4 4,0
13.10.2018 22:00:00 16,0 15,0 4 2 - - 6
13.10.2018 21:00:00 15,0 15,0 4 2 - - 7
13.10.2018 20:00:00 16,0 15,2 2 1 N 1021,0 10
13.10.2018 19:00:00 17,0 16,0 4 2 ENE - 10
13.10.2018 18:00:00 18,0 16,0 8 4 NNE - 10
13.10.2018 17:00:00 17,2 15,7 4 2 NO 1020,5 10
13.10.2018 16:00:00 17,0 16,0 8 4 O - 10
13.10.2018 15:00:00 21,0 18,0 22 12 NO - 5
13.10.2018 14:00:00 24,0 16,8 9 5 NO 1020,2 10
13.10.2018 13:00:00 23,0 16,0 8 4 NE - 10
13.10.2018 12:00:00 23,0 16,0 9 5 N - 10
13.10.2018 11:00:00 22,0 15,6 11 6 N 1021,4 10
13.10.2018 10:00:00 21,0 17,0 9 5 N - 8
13.10.2018 09:00:00 19,0 18,0 8 4 N - 3,0
13.10.2018 08:00:00 17,0 15,9 8 4 ONO 1021,4 1,2
13.10.2018 07:00:00 15,0 14,0 8 4 NO - 1,5
13.10.2018 06:00:00 14,0 13,0 4 2 - - 7
13.10.2018 05:00:00 16,8 16,0 4 2 N 1021,9 7
13.10.2018 04:00:00 16,0 15,0 9 5 NNO - 4,0
13.10.2018 03:00:00 14,0 13,0 0 0 N - 0,6
13.10.2018 02:00:00 15,4 14,6 0 0 N 1022,5 5
13.10.2018 01:00:00 16,0 16,0 8 4 NNO - 6
13.10.2018 00:00:00 15,0 15,0 5 3 NO - 10
12.10.2018 23:00:00 16,0 15,2 8 4 NNO 1022,9 10
12.10.2018 22:00:00 17,0 16,0 5 3 NO - 10
12.10.2018 21:00:00 18,0 17,0 9 5 NNO - 10
12.10.2018 20:00:00 17,8 16,7 9 5 NNO 1022,3 10
12.10.2018 19:00:00 19,0 17,0 11 6 N - 10
12.10.2018 18:00:00 20,0 15,0 18 10 N - 10
12.10.2018 17:00:00 21,6 16,4 16 9 N 1021,8 10
12.10.2018 16:00:00 22,0 16,0 16 9 N - 10
12.10.2018 15:00:00 23,0 16,0 15 8 N - 10
12.10.2018 14:00:00 23,4 17,2 18 10 N 1022,8 10
12.10.2018 13:00:00 23,0 16,0 9 5 N - 10
12.10.2018 12:00:00 23,0 17,0 11 6 NNE - 10
12.10.2018 11:00:00 22,0 15,8 11 6 NE 1022,8 10
12.10.2018 10:00:00 18,0 18,0 4 2 - - 3,6
12.10.2018 09:00:00 15,0 14,0 4 2 OSO - -
12.10.2018 08:00:00 12,8 12,3 2 1 N 1021,8 0,1
12.10.2018 07:00:00 12,0 12,0 2 1 - - 0,1
12.10.2018 06:00:00 13,0 12,0 2 1 - - 2,5
12.10.2018 05:00:00 13,4 12,8 2 1 - 1021,3 7
12.10.2018 04:00:00 14,0 13,0 4 2 - - 8
12.10.2018 03:00:00 15,0 14,0 2 1 NE - 8
12.10.2018 02:00:00 15,4 14,1 4 2 SE 1021,0 10
12.10.2018 01:00:00 16,0 15,0 2 1 S - 10
12.10.2018 00:00:00 16,0 15,0 2 1 - - 10
11.10.2018 23:00:00 16,4 15,8 4 2 N 1021,0 10
11.10.2018 22:00:00 17,0 16,0 4 2 NE - 10
11.10.2018 21:00:00 17,0 16,0 5 3 SSE - 10
11.10.2018 20:00:00 18,8 17,1 4 2 N 1020,8 10
11.10.2018 19:00:00 20,0 18,0 2 1 - - 8
11.10.2018 18:00:00 21,0 18,0 5 3 ENE - 10
11.10.2018 17:00:00 22,0 17,6 8 4 ENE 1019,8 10
11.10.2018 16:00:00 23,0 18,0 11 6 NE - 10
11.10.2018 15:00:00 24,0 13,0 4 2 - - 10
11.10.2018 14:00:00 24,0 15,2 4 2 N 1020,2 10
11.10.2018 13:00:00 23,0 15,0 5 3 - - 10
11.10.2018 12:00:00 23,0 16,0 5 3 - - 10
11.10.2018 11:00:00 21,8 17,8 5 3 - 1021,4 7
11.10.2018 10:00:00 18,0 17,0 4 2 - - 5
11.10.2018 09:00:00 15,0 14,0 2 1 - - 0,2
11.10.2018 08:00:00 13,2 12,6 2 1 N 1020,7 0,1
11.10.2018 07:00:00 12,0 11,0 2 1 - - 0,5
11.10.2018 06:00:00 12,0 11,0 2 1 - - 5
11.10.2018 05:00:00 12,2 11,6 4 2 N 1020,3 7
11.10.2018 04:00:00 12,0 12,0 2 1 - - 10
11.10.2018 03:00:00 13,0 13,0 2 1 - - 10
11.10.2018 02:00:00 13,4 12,6 4 2 S 1020,4 10
11.10.2018 01:00:00 14,0 13,0 2 1 - - 10
11.10.2018 00:00:00 15,0 14,0 2 1 - - 10
10.10.2018 23:00:00 15,0 14,2 4 2 S 1020,7 10
10.10.2018 22:00:00 16,0 15,0 4 2 N - 10
10.10.2018 21:00:00 17,0 16,0 8 4 N - 10
10.10.2018 20:00:00 17,8 15,8 4 2 N 1020,1 10
10.10.2018 19:00:00 19,0 16,0 5 3 N - 10
10.10.2018 18:00:00 21,0 17,0 11 6 N - 10
10.10.2018 17:00:00 21,8 15,9 11 6 N 1019,6 10
10.10.2018 16:00:00 23,0 18,0 15 8 N - 10
10.10.2018 15:00:00 24,0 18,0 16 9 N - 10
10.10.2018 14:00:00 24,2 17,9 13 7 NNO 1019,5 10
10.10.2018 13:00:00 24,0 18,0 11 6 NO - 10
10.10.2018 12:00:00 23,0 17,0 8 4 ONO - 10
10.10.2018 11:00:00 21,4 17,6 11 6 N 1020,0 10
10.10.2018 10:00:00 21,0 19,0 11 6 NNO - 7
10.10.2018 09:00:00 18,0 17,0 4 2 NNO - 3,2
10.10.2018 08:00:00 14,4 13,6 0 0 N 1019,8 0,3
10.10.2018 07:00:00 14,0 14,0 0 0 N - 0,1
10.10.2018 06:00:00 15,0 14,0 0 0 N - 0,8
10.10.2018 05:00:00 15,0 14,2 0 0 N 1020,1 4,0
10.10.2018 04:00:00 15,0 14,0 5 3 NO - 4,0

tt = Temperatura
td = dewpoint
ff = velocità del vento
dd = direzione del vento
ppp = reduced air pressure
vv = visibility

Stazioni seguenti

WeatherPro
AMSI
MeteoEarth